Regional Weather Roundup
Issued by NWS

Home | Current Version | Previous Version | Text Only | Print | Product List | Glossary Off
Versions: 1 2 3 4 5 6 7 8 9 10 11 12 13 14 15 16 17 18 19 20 21 22 23 24 25 26 27 28 29 30 31 32 33 34 35 36 37 38 39 40 41 42 43 44 45 46 47 48 49 50

000
ASUS43 KMKX 301500
RWRWI

WISCONSIN REGIONAL WEATHER ROUNDUP
NATIONAL WEATHER SERVICE MILWAUKEE/SULLIVAN WI
1000 AM CDT TUE SEP 30 2014

NOTE: "FAIR" INDICATES FEW OR NO CLOUDS BELOW 12,000 FEET WITH NO
SIGNIFICANT WEATHER AND/OR OBSTRUCTIONS TO VISIBILITY.

WIZ001-002-006>008-014>016-023>028-301600-
NORTHWEST WISCONSIN

CITY           SKY/WX    TMP DP  RH WIND       PRES   REMARKS
SUPERIOR ARPT  CLOUDY    44  40  85 E10       30.12S
ASHLAND        CLOUDY    44  39  82 E6        30.14F
HAYWARD        CLOUDY    41  38  89 VRB7      30.11S
SIREN          CLOUDY    42  38  88 SE6       30.10S
CUMBERLAND     CLOUDY    39  36  87 SE8       30.10S WCI  34
RICE LAKE      CLOUDY    41  37  87 NE6       30.12S
CHETEK         CLOUDY    40  38  92 NE3       30.10F
LADYSMITH      CLOUDY    40  38  90 NE7       30.12F
EAU CLAIRE     CLOUDY    43  37  79 E8        30.10S
MENOMONIE      CLOUDY    43  38  83 E7        30.10F
NEW RICHMOND   CLOUDY    41  38  89 E6        30.10R
OSCEOLA        CLOUDY    43  41  94 SE9       30.12S
$$

WIZ003>005-009-010-017-018-301600-
NORTH CENTRAL WISCONSIN

CITY           SKY/WX    TMP DP  RH WIND       PRES   REMARKS
MANITOWISH WTR CLOUDY    38  38  99 NE3       30.12S
ARBOR VITAE    CLOUDY    40  37  92 CALM      30.12S
WOODRUFF       CLOUDY    40  37  92 CALM      30.12S
RHINELANDER    CLOUDY    40  37  89 VRB6      30.11F
EAGLE RIVER    CLOUDY    39  39  99 E9        30.12R WCI  33
LAND O LAKES   CLOUDY    39  39  99 NE7       30.13S WCI  34
PHILLIPS       CLOUDY    39  37  92 E6        30.11S WCI  35
TOMAHAWK       CLOUDY    40  37  87 E3        30.12F
MEDFORD        CLOUDY    38  37  92 NE9       30.10S WCI  32
MERRILL        CLOUDY    41  38  91 NE3       30.11F
$$

WIZ029-030-035-036-043>047-301600-
CENTRAL WISCONSIN

CITY           SKY/WX    TMP DP  RH WIND       PRES   REMARKS
WAUSAU         CLOUDY    42  38  85 NE5       30.10F
MOSINEE        NOT AVBL
MARSHFIELD     CLOUDY    42  38  85 E8        30.10S
STEVENS POINT  CLOUDY    40  37  89 NE8       30.12S WCI  34
WAUPACA        CLOUDY    45  40  82 N8        30.12S
WAUTOMA        NOT AVBL
WISC RAPIDS    CLOUDY    43  38  82 NE8       30.12S
CAMP DOUGLAS   NOT AVBL
$$

WIZ011>013-019>022-031-037>040-048>050-301600-
NORTHEAST WISCONSIN

CITY           SKY/WX    TMP DP  RH WIND       PRES   REMARKS
ANTIGO         CLOUDY    39  37  92 NE8       30.10F WCI  34
SHAWANO        CLOUDY    44  39  82 N7        30.12F
OCONTO         CLOUDY    44  40  85 NE9       30.11F
STURGEON BAY   NOT AVBL
GREEN BAY      CLOUDY    44  41  89 N9        30.11F
MANITOWOC      NOT AVBL
APPLETON       CLOUDY    43  37  81 NE8       30.11S
CLINTONVILLE   CLOUDY    43  36  75 NE8       30.11F
OSHKOSH        CLOUDY    45  40  82 N9        30.10S
$$

WIZ032>034-041-042-053>061-301600-
SOUTHWEST WISCONSIN

CITY           SKY/WX    TMP DP  RH WIND       PRES   REMARKS
LA CROSSE      CLOUDY    47  40  76 E9        30.09F
SPARTA         CLOUDY    42  39  89 NE7       30.10F
VIROQUA        CLOUDY    44  43  99 SE3       30.08S
BOSCOBEL       CLOUDY    48  42  80 NE6       30.10S
PRAIRIE DU CHI CLOUDY    46  42  84 E7        30.07F
PLATTEVILLE    CLOUDY    45  42  89 NE8       30.09S
$$

WIZ056-057-062-063-064-067-068-301600-
SOUTH CENTRAL WISCONSIN

CITY           SKY/WX    TMP DP  RH WIND       PRES   REMARKS
REEDSBURG      CLOUDY    42  40  91 E6        30.10R
BARABOO/DELLS  CLOUDY    42  39  89 NE7       30.10R
LONE ROCK      CLOUDY    49  40  71 E5        30.09F
MINERAL POINT  NOT AVBL
MADISON        CLOUDY    44  40  85 NE5       30.10R
MIDDLETON      CLOUDY    44  41  89 NE8       30.10R
WATERTOWN      CLOUDY    44  41  91 E7        30.09S
MONROE         CLOUDY    43  41  93 NE7       30.08S
JANESVILLE     CLOUDY    46  39  76 N7        30.08
$$

WIZ051-052-058>065-066-070>072-301600-
SOUTHEAST WISCONSIN

CITY           SKY/WX    TMP DP  RH WIND       PRES   REMARKS
MILWAUKEE      CLOUDY    49  41  74 N8        30.08S
WAUKESHA       CLOUDY    45  39  81 NE7       30.09F
MILWAUKEE/TIMM CLOUDY    46  39  76 N10       30.09R
RACINE         CLOUDY    49  44  83 N10       30.08S
BURLINGTON     CLOUDY    46  39  76 NE6       30.08F
KENOSHA        CLOUDY    49  43  80 N8        30.07F
FOND DU LAC    CLOUDY    45  40  82 NE10      30.10S
SHEBOYGAN      NOT AVBL
WEST BEND      CLOUDY    45  37  76 NE9       30.08S
JUNEAU         CLOUDY    44  40  86 NE8       30.10S
$$

LSZ147-162-301600-
LAKE SUPERIOR

STATION/POSITION TIME  TEMP    WIND        PRES    WAVE
                       AIR SEA DIR/SP/G            HT/PER
                 (UTC) (F)     (DEG/KT/KT) (MB)    (FT/S)
W MID LAKE BUOY  1350   44 49   90/ 10/ 12 1021.8F   2/ 6
DEVILS ISLAND    1400   45      80/ 12/ 14 1021.7F
SAXON HARBOR     1400   43      80/  6/ 11 1021.0F
$$

LMZ867-665-643>646-301600-
LAKE MICHIGAN

STATION/POSITION TIME  TEMP    WIND        PRES    WAVE
                       AIR SEA DIR/SP/G            HT/PER
                 (UTC) (F)     (DEG/KT/KT) (MB)    (FT/S)
CHAMBERS ISLAND  1400   46     330/ 15/ 18 1019.6R
S GREEN BAY BUOY 1400   45                 1020.4
N MID LAKE BUOY  1350   47 58   10/ 16/ 19 1018.5    3/ 5
NORTHPORT PIER   1400   46      10/ 12/ 17 1019.0S
KEWAUNEE LAKESHO 1400   45     350/  7/ 11 1018.1R
SHEBOYGAN LAKESH 1400   46 54  350/ 15/ 17 1019.4R
PORT WASHINGTON  1400          360/  7/ 12 1019.3S
ATWATER BUOY     1400   48     350/ 16/ 17 1019.1S
MILWAUKEE LAKESH 1400          330/ 10/ 14   N/A
S MID LAKE BUOY  1350   52 61  360/ 17/ 21 1017.0S   6/ 8
KENOSHA   LAKESH 1400          330/ 11/ 13 1018.3R
$$

TC  - TEMPERATURE IN CELSIUS
VSB - VISIBILITY IN STATUTE MILES
WCI - WIND CHILL INDEX
HX  - HEAT INDEX




USA.gov is the U.S. government's official web portal to all federal, state and local government web resources and services.